When you browse on this site, cookies collect data to enhance your experience and personalize the content and advertising you see.
Visit our Privacy Policy to learn more. By continuing to use the site, you agree to this use of cookies and data.
  • In United Kingdom
  • List of Countries
  • For 7 days
  • Water Temperature
  • Satellite Maps
  • Weather Map
  • Weather Widgets
  • user-avatar
    Login

    Hourly Weather Bubanza

    Today, 17 November, Saturday

    Time Temperature Precipitation Wind Pressure Humidity
    00:00 +22°C° 0.1 mm 1 mps 673 mmHg 89%
    01:00 +22°C° 0.1 mm 1 mps 673 mmHg 89%
    02:00 +21°C° 0.1 mm 1 mps 673 mmHg 90%
    03:00 +21°C° 0 mm 1 mps 672 mmHg 90%
    04:00 +21°C° 0 mm 1 mps 672 mmHg 89%
    05:00 +21°C° 0 mm 1 mps 672 mmHg 89%
    06:00 +22°C° 0 mm 1 mps 673 mmHg 83%
    07:00 +24°C° 0 mm 1 mps 674 mmHg 76%
    08:00 +26°C° 0 mm 1 mps 674 mmHg 69%
    09:00 +28°C° 0 mm 1 mps 674 mmHg 63%
    10:00 +30°C° 0 mm 1 mps 674 mmHg 57%
    11:00 +32°C° 0 mm 2 mps 674 mmHg 51%
    12:00 +32°C° 0.3 mm 2 mps 674 mmHg 52%
    13:00 +31°C° 0.3 mm 2 mps 673 mmHg 54%
    14:00 +31°C° 0.3 mm 2 mps 672 mmHg 56%
    15:00 +30°C° 0.5 mm 1 mps 672 mmHg 60%
    16:00 +30°C° 0.5 mm 1 mps 671 mmHg 63%
    17:00 +29°C° 0.5 mm 1 mps 671 mmHg 67%
    18:00 +27°C° 0.7 mm 1 mps 672 mmHg 72%
    19:00 +25°C° 0.7 mm 1 mps 672 mmHg 77%
    20:00 +23°C° 0.7 mm 1 mps 672 mmHg 82%
    21:00 +23°C° 0.1 mm 1 mps 672 mmHg 83%
    22:00 +22°C° 0.1 mm 1 mps 672 mmHg 84%
    23:00 +22°C° 0.1 mm 1 mps 673 mmHg 85%

    Tomorrow, 18 November, Sunday

    Time Temperature Precipitation Wind Pressure Humidity
    00:00 +22°C° 0 mm 1 mps 672 mmHg 85%
    01:00 +21°C° 0 mm 1 mps 672 mmHg 85%
    02:00 +21°C° 0 mm 1 mps 672 mmHg 85%
    03:00 +21°C° 0 mm 1 mps 672 mmHg 85%
    04:00 +21°C° 0 mm 1 mps 672 mmHg 85%
    05:00 +21°C° 0 mm 1 mps 672 mmHg 84%
    06:00 +23°C° 0 mm 1 mps 673 mmHg 77%
    07:00 +25°C° 0 mm 1 mps 673 mmHg 71%
    08:00 +27°C° 0 mm 1 mps 674 mmHg 64%
    09:00 +28°C° 0.1 mm 1 mps 674 mmHg 59%
    10:00 +30°C° 0.1 mm 1 mps 674 mmHg 55%
    11:00 +32°C° 0.1 mm 1 mps 674 mmHg 51%
    12:00 +31°C° 0.8 mm 1 mps 673 mmHg 54%
    13:00 +31°C° 0.8 mm 2 mps 672 mmHg 57%
    14:00 +31°C° 0.8 mm 2 mps 672 mmHg 60%
    15:00 +30°C° 1.7 mm 2 mps 671 mmHg 65%
    16:00 +28°C° 1.7 mm 2 mps 671 mmHg 70%
    17:00 +27°C° 1.7 mm 1 mps 671 mmHg 75%
    18:00 +26°C° 2.4 mm 1 mps 671 mmHg 79%
    19:00 +24°C° 2.4 mm 1 mps 672 mmHg 84%
    20:00 +21°C° 2.4 mm 0 mps 673 mmHg 88%
    21:00 +23°C° 0.7 mm 1 mps 673 mmHg 89%
    22:00 +22°C° 0.7 mm 1 mps 673 mmHg 90%
    23:00 +22°C° 0.7 mm 1 mps 673 mmHg 91%

    Day after tomorrow, 19 November, Monday

    Time Temperature Precipitation Wind Pressure Humidity
    00:00 +22°C° 0 mm 1 mps 672 mmHg 91%
    01:00 +21°C° 0 mm 1 mps 672 mmHg 91%
    02:00 +21°C° 0 mm 1 mps 671 mmHg 91%
    03:00 +21°C° 0 mm 1 mps 671 mmHg 91%
    04:00 +21°C° 0 mm 1 mps 671 mmHg 91%
    05:00 +21°C° 0 mm 1 mps 672 mmHg 90%
    06:00 +23°C° 0 mm 1 mps 672 mmHg 85%
    07:00 +24°C° 0 mm 1 mps 673 mmHg 80%
    08:00 +26°C° 0 mm 1 mps 674 mmHg 74%
    09:00 +28°C° 0 mm 1 mps 674 mmHg 66%
    10:00 +30°C° 0 mm 1 mps 674 mmHg 57%
    11:00 +32°C° 0 mm 1 mps 674 mmHg 49%
    12:00 +32°C° 0.4 mm 1 mps 673 mmHg 51%
    13:00 +31°C° 0.4 mm 1 mps 672 mmHg 54%
    14:00 +31°C° 0.4 mm 1 mps 671 mmHg 56%
    15:00 +30°C° 1.5 mm 1 mps 671 mmHg 62%
    16:00 +28°C° 1.5 mm 1 mps 671 mmHg 68%
    17:00 +27°C° 1.5 mm 1 mps 671 mmHg 75%
    18:00 +25°C° 2.6 mm 1 mps 671 mmHg 79%
    19:00 +24°C° 2.6 mm 1 mps 672 mmHg 84%
    20:00 +23°C° 2.6 mm 1 mps 673 mmHg 89%
    21:00 +23°C° 0.8 mm 1 mps 673 mmHg 90%
    22:00 +22°C° 0.8 mm 1 mps 673 mmHg 91%
    23:00 +20°C° 0.8 mm 0 mps 673 mmHg 92%

    20 November, Tuesday

    Time Temperature Precipitation Wind Pressure Humidity
    00:00 +22°C° 0.1 mm 1 mps 673 mmHg 92%
    01:00 +21°C° 0.1 mm 1 mps 672 mmHg 92%
    02:00 +21°C° 0.1 mm 1 mps 671 mmHg 92%
    03:00 +21°C° 0 mm 1 mps 671 mmHg 91%
    04:00 +21°C° 0 mm 1 mps 671 mmHg 91%
    05:00 +21°C° 0 mm 1 mps 671 mmHg 90%
    06:00 +23°C° 0 mm 1 mps 672 mmHg 84%
    07:00 +24°C° 0 mm 1 mps 673 mmHg 78%
    08:00 +24°C° 0 mm 0 mps 674 mmHg 71%
    09:00 +28°C° 0.1 mm 1 mps 674 mmHg 64%
    10:00 +30°C° 0.1 mm 1 mps 674 mmHg 57%
    11:00 +32°C° 0.1 mm 1 mps 674 mmHg 50%
    12:00 +32°C° 0.5 mm 1 mps 673 mmHg 53%
    13:00 +31°C° 0.5 mm 1 mps 672 mmHg 56%
    14:00 +31°C° 0.5 mm 1 mps 671 mmHg 59%
    15:00 +30°C° 1 mm 1 mps 671 mmHg 63%
    16:00 +29°C° 1 mm 1 mps 671 mmHg 68%
    17:00 +28°C° 1 mm 1 mps 671 mmHg 72%
    18:00 +26°C° 1.6 mm 1 mps 672 mmHg 76%
    19:00 +23°C° 1.6 mm 0 mps 672 mmHg 81%
    20:00 +22°C° 1.6 mm 0 mps 673 mmHg 85%
    21:00 +21°C° 0.9 mm 0 mps 673 mmHg 86%
    22:00 +21°C° 0.9 mm 0 mps 673 mmHg 87%
    23:00 +20°C° 0.9 mm 0 mps 673 mmHg 88%

    21 November, Wednesday

    Time Temperature Precipitation Wind Pressure Humidity
    00:00 +20°C° 0.3 mm 0 mps 672 mmHg 88%
    01:00 +20°C° 0.3 mm 0 mps 672 mmHg 88%
    02:00 +20°C° 0.3 mm 0 mps 671 mmHg 89%
    03:00 +20°C° 0 mm 0 mps 671 mmHg 89%
    04:00 +19°C° 0 mm 0 mps 671 mmHg 89%
    05:00 +21°C° 0 mm 1 mps 671 mmHg 89%
    06:00 +23°C° 0 mm 1 mps 672 mmHg 83%
    07:00 +25°C° 0 mm 1 mps 673 mmHg 78%
    08:00 +27°C° 0 mm 1 mps 674 mmHg 73%
    09:00 +29°C° 0.1 mm 1 mps 674 mmHg 65%
    10:00 +31°C° 0.1 mm 1 mps 674 mmHg 57%
    11:00 +33°C° 0.1 mm 1 mps 674 mmHg 49%
    12:00 +32°C° 0.8 mm 1 mps 673 mmHg 53%
    13:00 +32°C° 0.8 mm 1 mps 672 mmHg 56%
    14:00 +31°C° 0.8 mm 1 mps 671 mmHg 60%
    15:00 +30°C° 1.4 mm 1 mps 671 mmHg 65%
    16:00 +29°C° 1.4 mm 1 mps 671 mmHg 69%
    17:00 +28°C° 1.4 mm 1 mps 671 mmHg 74%
    18:00 +26°C° 2.4 mm 1 mps 672 mmHg 78%
    19:00 +25°C° 2.4 mm 1 mps 672 mmHg 83%
    20:00 +22°C° 2.4 mm 0 mps 673 mmHg 87%
    21:00 +21°C° 2.2 mm 0 mps 673 mmHg 88%
    22:00 +21°C° 2.2 mm 0 mps 673 mmHg 89%
    23:00 +23°C° 2.2 mm 1 mps 673 mmHg 91%

    22 November, Thursday

    Time Temperature Precipitation Wind Pressure Humidity
    00:00 +23°C° 0.6 mm 1 mps 672 mmHg 91%
    01:00 +22°C° 0.6 mm 1 mps 672 mmHg 92%
    02:00 +22°C° 0.6 mm 1 mps 671 mmHg 92%
    03:00 +22°C° 0.2 mm 1 mps 671 mmHg 92%
    04:00 +22°C° 0.2 mm 1 mps 671 mmHg 91%
    05:00 +22°C° 0.2 mm 1 mps 671 mmHg 91%
    06:00 +23°C° 0 mm 1 mps 672 mmHg 87%
    07:00 +24°C° 0 mm 1 mps 673 mmHg 82%
    08:00 +26°C° 0 mm 1 mps 673 mmHg 78%
    09:00 +27°C° 0 mm 1 mps 673 mmHg 69%
    10:00 +29°C° 0 mm 1 mps 673 mmHg 60%
    11:00 +31°C° 0 mm 1 mps 673 mmHg 52%
    12:00 +31°C° 0.3 mm 1 mps 672 mmHg 54%
    13:00 +31°C° 0.3 mm 1 mps 672 mmHg 56%
    14:00 +31°C° 0.3 mm 1 mps 671 mmHg 59%
    15:00 +30°C° 0.6 mm 1 mps 671 mmHg 63%
    16:00 +28°C° 0.6 mm 1 mps 671 mmHg 68%
    17:00 +27°C° 0.6 mm 1 mps 671 mmHg 73%
    18:00 +26°C° 0.8 mm 1 mps 671 mmHg 76%
    19:00 +23°C° 0.8 mm 0 mps 672 mmHg 79%
    20:00 +22°C° 0.8 mm 0 mps 672 mmHg 83%
    21:00 +21°C° 0.4 mm 0 mps 672 mmHg 84%
    22:00 +21°C° 0.4 mm 0 mps 672 mmHg 84%
    23:00 +21°C° 0.4 mm 0 mps 672 mmHg 85%
    Show more